[[{"header":{"parameterUnit":"m.s-1","parameterCategory":2,"la1":30.2991,"la2":30.254,"lo1":-89.0895,"lo2":-89.0444,"dy":0.0017,"dx":0.0017,"nx":28,"ny":28,"refTime":"2024-05-10T03:00:00:Z","depth":"0","parameterNumber":2,"parameterNumberName":"U-component_of_CURRENTS"},"data":[0,0,0,0,0,0,0,0,0,0,0,0,0,0,0,0,0,0,0,0,0,0,0,0,0,0,0,0,0,0,0,0,0,0,0,0,0,0,0,0,0,0,0,0,0,0,0,0,0,0,0,0,0,0,0,0,0,0,0.3817,0.3818,0,0.3868,0.3868,0.3869,0.3858,0.3857,0.3856,0.3854,0.394,0.3943,0.3947,0,0,0,0,0,0,0,0,0,0,0,0,0,0.3769,0.377,0.3817,0.3818,0.3818,0.3867,0.3868,0.3869,0.3858,0.3857,0.3855,0.3854,0.3939,0.3943,0.3947,0,0,0,0,0,0,0,0,0,0,0,0,0,0.3804,0.377,0.3817,0.3817,0.3817,0.3867,0.3868,0.387,0.3858,0.3857,0.3855,0.3853,0.3938,0.3942,0.3947,0.4013,0,0,0.3963,0.3965,0,0,0,0,0,0,0,0,0.3802,0.3806,0.3816,0.3817,0.3817,0.3853,0.3883,0.3919,0.3859,0.3845,0.3854,0.3852,0.3914,0.3921,0.3937,0.4017,0.4021,0.3963,0.3966,0.3968,0.397,0,0,0,0,0,0,0,0.3799,0.3804,0.384,0.3817,0.3817,0.3834,0.3836,0.389,0.3891,0.3846,0.3845,0.3847,0.3914,0.3932,0.3939,0.4022,0.3963,0.3968,0.3971,0.3973,0.4119,0.4119,0,0,0,0,0,0,0.3788,0.3802,0.3838,0.3841,0.3802,0.3835,0.3839,0.3845,0.389,0.3894,0.3849,0.3847,0.3924,0.3933,0.3942,0.399,0.3968,0.3973,0.3976,0.4118,0.4119,0.412,0,0,0,0,0,0,0.3787,0.3791,0.3836,0.382,0.3827,0.3837,0.3845,0.3847,0.3865,0.3891,0.3896,0.3864,0.3923,0.3935,0.3987,0.3994,0.3975,0.398,0.4117,0.4118,0.4119,0.4108,0,0,0,0,0,0,0.3785,0.379,0.3811,0.382,0.3827,0.3869,0.3847,0.3849,0.3867,0.3865,0.3906,0.3912,0.3923,0.3979,0.3992,0.4001,0.3984,0.4116,0.4117,0.4119,0.4108,0.4109,0.411,0,0,0,0,0,0.3783,0.382,0.3811,0.3817,0.3848,0.387,0.3877,0.3879,0.387,0.3888,0.3908,0.3911,0.3997,0.3985,0.3999,0.401,0.4115,0.4117,0.4119,0.4107,0.4109,0.411,0,0,0,0,0,0,0.3819,0.3822,0.3813,0.385,0.3857,0.3867,0.3893,0.3889,0.3921,0.3918,0.3937,0.3946,0.3991,0.4011,0.3996,0.4056,0.4052,0.4057,0.4038,0.404,0.4041,0.4049,0.3988,0,0,0,0,0,0.3833,0.3856,0.3853,0.3885,0.3888,0.3891,0.3907,0.39,0.3919,0.3931,0.3951,0.3979,0.4014,0.4033,0.4069,0.4117,0.4151,0.4129,0.413,0.4131,0.4147,0.4197,0.4204,0.4126,0.4126,0.4126,0,0,0.385,0.3861,0.3872,0.3894,0.39,0.3908,0.3897,0.3916,0.3924,0.3939,0.3971,0.3995,0.4031,0.407,0.4091,0.4084,0.4173,0.4133,0.4134,0.415,0.42,0.4208,0.4214,0.4127,0.4127,0.4127,0,0,0.3893,0.3908,0.3931,0.3937,0.3945,0.3941,0.3944,0.3949,0.3955,0.3987,0.3994,0.4023,0.4077,0.4096,0.4115,0.4154,0.4183,0.416,0.4171,0.4219,0.4226,0.4232,0.4291,0.4302,0.4154,0.4154,0.4154,0,0.3913,0.3936,0.3944,0.3963,0.3957,0.3951,0.3952,0.3973,0.3992,0.4007,0.3993,0.4069,0.4089,0.4142,0.4142,0.4157,0.4196,0.4157,0.422,0.4227,0.4234,0.4293,0.4306,0.4154,0.4154,0.4154,0.4154,0,0.3959,0.3973,0.399,0.3996,0.3997,0.4004,0.4,0.4018,0.4013,0.4028,0.4076,0.4103,0.4145,0.4147,0.4157,0.4214,0.4231,0.4218,0.4213,0.4241,0.4301,0.4315,0.4153,0.4154,0.4154,0.4154,0,0,0.3978,0.4013,0.401,0.4012,0.4003,0.4009,0.4023,0.4036,0.4071,0.4083,0.4128,0.4161,0.4176,0.4199,0.4212,0.4245,0.4315,0.4251,0.4253,0.4305,0.444,0.4429,0.4443,0.4314,0.4316,0.4318,0.4464,0,0.3994,0.4034,0.4031,0.4038,0.4043,0.4029,0.405,0.4067,0.409,0.4146,0.4169,0.4231,0.4197,0.4229,0.425,0.4325,0.4351,0.4278,0.441,0.4414,0.4397,0.4458,0.4317,0.4434,0.4478,0.448,0.4482,0,0.4005,0.4034,0.4046,0.4058,0.4056,0.4065,0.4083,0.4109,0.4181,0.4208,0.4252,0.4287,0.4358,0.4314,0.4427,0.4387,0.4408,0.4441,0.4447,0.4454,0.4429,0.4413,0.4457,0.4368,0.4503,0.4502,0.45,0,0.399,0.4024,0.4033,0.4035,0.406,0.4066,0.4086,0.4135,0.4183,0.4272,0.434,0.439,0.4478,0.4494,0.4553,0.4503,0.4683,0.4619,0.4623,0.4623,0.4538,0.4527,0.4507,0.4674,0.4673,0.4673,0.4672,0,0.3978,0.3981,0.4044,0.4047,0.4078,0.4089,0.4134,0.4174,0.4262,0.435,0.4392,0.4487,0.4533,0.4628,0.4614,0.4695,0.4732,0.4655,0.4667,0.4531,0.4518,0.4464,0.4418,0.4678,0.4677,0.4676,0.4675,0,0.3928,0.3969,0.3995,0.4049,0.4068,0.4096,0.4167,0.421,0.4321,0.4443,0.4485,0.4623,0.4749,0.4784,0.4869,0.4822,0.4738,0.486,0.4708,0.4699,0.4573,0.4531,0.4362,0.4233,0.4881,0.4882,0.4883,0,0.3901,0.3914,0.3994,0.4014,0.4034,0.4089,0.4114,0.4217,0.4273,0.452,0.4577,0.4771,0.4849,0.4994,0.4956,0.4955,0.4782,0.4823,0.4676,0.4576,0.4539,0.4318,0.4204,0.4566,0.4564,0.4562,0.4561,0,0.3844,0.3882,0.3908,0.397,0.4005,0.4042,0.4108,0.4172,0.4318,0.4434,0.4608,0.4713,0.4903,0.4861,0.491,0.4873,0.4604,0.4788,0.4716,0.4328,0.4055,0.3933,0.4476,0.4546,0.4547,0.4549,0.4549,0.455,0.3794,0.3813,0.3863,0.3895,0.3935,0.3962,0.395,0.4044,0.4132,0.4264,0.4486,0.4566,0.4719,0.4759,0.471,0.4586,0.451,0.4444,0.442,0.4218,0.4018,0.4545,0.4603,0.4605,0.4606,0.4608,0.4609,0,0.3715,0.3741,0.3776,0.3798,0.3774,0.3842,0.3891,0.385,0.388,0.4069,0.4168,0.4302,0.4309,0.4381,0.4393,0.4259,0.3992,0.414,0.3792,0.371,0.423,0.4144,0.4066,0.4066,0.4066,0.4066,0.4066,0.4066,0.3679,0.3673,0.3686,0.3617,0.3616,0.3533,0.3526,0.3512,0.3582,0.3621,0.368,0.3813,0.41,0.4223,0.4125,0.4008,0.3692,0.3521,0.3491,0.3888,0.3912,0.3935,0.3842,0.3703,0.3702,0.2794,0.2788,0.2783]},{"header":{"parameterUnit":"m.s-1","parameterCategory":2,"la1":30.2991,"la2":30.254,"lo1":-89.0895,"lo2":-89.0444,"dy":0.0017,"dx":0.0017,"nx":28,"ny":28,"refTime":"2024-05-10T03:00:00:Z","depth":"0","parameterNumber":3,"parameterNumberName":"V-component_of_CURRENTS"},"data":[0,0,0,0,0,0,0,0,0,0,0,0,0,0,0,0,0,0,0,0,0,0,0,0,0,0,0,0,0,0,0,0,0,0,0,0,0,0,0,0,0,0,0,0,0,0,0,0,0,0,0,0,0,0,0,0,0,0,0.0327,0.0327,0,0.0277,0.0276,0.0275,0.022,0.022,0.0219,0.0219,0.0123,0.0122,0.012,0,0,0,0,0,0,0,0,0,0,0,0,0,0.0286,0.0287,0.0327,0.0327,0.0326,0.0277,0.0276,0.0275,0.0221,0.022,0.0219,0.0219,0.0124,0.0122,0.0119,0,0,0,0,0,0,0,0,0,0,0,0,0,0.0274,0.0287,0.0327,0.0295,0.0292,0.0277,0.0276,0.0275,0.0221,0.022,0.0219,0.0218,0.0125,0.0122,0.0119,0.0117,0,0,0.011,0.0108,0,0,0,0,0,0,0,0,0.0275,0.0275,0.03,0.0297,0.0294,0.0256,0.0227,0.0221,0.0221,0.0245,0.0219,0.0218,0.0166,0.016,0.0149,0.0113,0.0108,0.0109,0.0108,0.0106,0.0105,0,0,0,0,0,0,0,0.0276,0.0277,0.0305,0.03,0.0296,0.0252,0.025,0.0225,0.0208,0.0243,0.0239,0.0238,0.0163,0.0152,0.0146,0.0107,0.011,0.0107,0.0105,0.0104,0.0054,0.0054,0,0,0,0,0,0,0.0293,0.0278,0.0306,0.0303,0.0285,0.0254,0.0252,0.0267,0.0209,0.0201,0.0239,0.0236,0.0158,0.015,0.0143,0.015,0.0106,0.0104,0.0102,0.0053,0.0054,0.0054,0,0,0,0,0,0,0.0293,0.0297,0.0308,0.029,0.0289,0.0257,0.0274,0.0267,0.026,0.0207,0.0197,0.0241,0.0157,0.0147,0.0127,0.0145,0.0102,0.0099,0.0053,0.0053,0.0054,0.0155,0,0,0,0,0,0,0.0292,0.0298,0.0308,0.0292,0.0291,0.0314,0.0274,0.0266,0.0261,0.0257,0.0205,0.0195,0.0155,0.0132,0.0124,0.014,0.0097,0.0052,0.0053,0.0054,0.0151,0.0159,0.0166,0,0,0,0,0,0.0291,0.032,0.031,0.0312,0.031,0.0315,0.0311,0.0281,0.0263,0.027,0.0231,0.0197,0.0132,0.013,0.0121,0.0136,0.0052,0.0053,0.0054,0.0148,0.0158,0.0166,0,0,0,0,0,0,0.0308,0.0317,0.0305,0.0335,0.0329,0.0307,0.0309,0.0293,0.0268,0.026,0.0207,0.0195,0.0181,0.0145,0.0145,0.0122,0.0085,0.0084,0.0159,0.0168,0.0175,0.0202,0.0095,0,0,0,0,0,0.0319,0.0342,0.0337,0.0359,0.036,0.0336,0.0332,0.0317,0.0296,0.0284,0.0249,0.0208,0.0179,0.0164,0.013,0.0124,0.0083,0.0125,0.0132,0.0139,0.0153,0.0105,0.011,0.0058,0.0058,0.0058,0,0,0.033,0.0338,0.0349,0.0364,0.0353,0.0375,0.0332,0.0338,0.035,0.0278,0.0279,0.0234,0.0182,0.0171,0.0162,0.0145,0.0131,0.014,0.0147,0.0157,0.0107,0.0112,0.0117,0.0059,0.0059,0.0058,0,0,0.0374,0.0374,0.041,0.0412,0.0412,0.0403,0.0413,0.0398,0.0383,0.038,0.0328,0.0298,0.0258,0.0223,0.0201,0.023,0.0171,0.0217,0.028,0.0234,0.0238,0.0241,0.0196,0.0195,0.0223,0.0223,0.0223,0,0.0384,0.0435,0.0418,0.0451,0.0461,0.0426,0.0465,0.045,0.0429,0.0426,0.0393,0.0333,0.0283,0.0273,0.0278,0.0248,0.0213,0.0253,0.0245,0.0247,0.0249,0.0202,0.0199,0.0228,0.0227,0.0227,0.0226,0,0.0456,0.0492,0.0513,0.0548,0.0552,0.058,0.0564,0.0564,0.054,0.0524,0.0503,0.0431,0.0398,0.0373,0.0334,0.0327,0.0295,0.026,0.0228,0.026,0.0208,0.0203,0.0235,0.0233,0.0232,0.023,0,0,0.0497,0.0555,0.0563,0.0598,0.0607,0.0627,0.0643,0.0658,0.0686,0.0631,0.0655,0.0578,0.0536,0.0507,0.0446,0.0403,0.0375,0.0347,0.0342,0.0313,0.0277,0.0262,0.0254,0.034,0.034,0.0339,0.0236,0,0.0561,0.0653,0.0656,0.0735,0.0782,0.0753,0.0783,0.0781,0.0765,0.0778,0.0691,0.0683,0.0589,0.0576,0.0519,0.0424,0.0366,0.0406,0.024,0.0236,0.0226,0.0249,0.0273,0.0185,0.0231,0.023,0.023,0,0.0635,0.069,0.0784,0.0849,0.0866,0.0905,0.0946,0.0968,0.096,0.0944,0.0904,0.0836,0.0772,0.0682,0.0523,0.0555,0.0425,0.0333,0.0326,0.0276,0.0212,0.0157,0.0173,-0.0038,0.0221,0.0222,0.0222,0,0.069,0.0779,0.0863,0.0883,0.0948,0.0983,0.1016,0.1027,0.1077,0.1055,0.1093,0.0972,0.0952,0.0769,0.0571,0.0546,0.0397,0.0331,0.0185,0.0182,0.0152,0.0148,-0.0045,0.02,0.02,0.0201,0.0201,0,0.0767,0.0832,0.0905,0.0953,0.1067,0.1067,0.1178,0.1186,0.1233,0.1337,0.1196,0.1248,0.0975,0.0855,0.063,0.0416,0.0433,0.0206,0.016,0.0187,0.0187,-0.0039,-0.0151,0.0197,0.0198,0.0198,0.0199,0,0.0826,0.0868,0.0975,0.1064,0.1104,0.1187,0.1314,0.1393,0.1418,0.155,0.1553,0.1467,0.1301,0.1013,0.0732,0.0527,0.017,0.0197,0.0251,0.0212,-0.0128,-0.0233,-0.0477,-0.0567,0.0016,0.0015,0.0014,0,0.0868,0.0932,0.1066,0.1145,0.1199,0.1324,0.1421,0.1484,0.1588,0.171,0.1791,0.1669,0.1624,0.1198,0.077,0.0359,0.0141,0.0126,0.0067,-0.0133,-0.0286,-0.0376,-0.044,0.0058,0.0058,0.0057,0.0057,0,0.0951,0.0996,0.1087,0.1255,0.1377,0.1526,0.1674,0.1789,0.19,0.2024,0.2156,0.213,0.173,0.1328,0.076,0.0474,-0.0008,0.0107,-0.0117,-0.0276,-0.0368,-0.0479,0.0106,0.0055,0.0055,0.0055,0.0055,0.0055,0.1009,0.1092,0.1214,0.1374,0.152,0.171,0.1845,0.2022,0.2228,0.2429,0.2407,0.2417,0.1861,0.108,0.0667,-0.0049,-0.0067,-0.0262,-0.0376,-0.0451,-0.053,0.0058,-0.0033,-0.0034,-0.0034,-0.0034,-0.0034,0,0.1079,0.1175,0.1323,0.1515,0.1679,0.1749,0.2,0.2155,0.2417,0.2592,0.2695,0.2432,0.1742,0.1038,0.008,-0.0426,-0.0612,-0.0699,-0.0832,-0.0877,-0.0371,-0.036,-0.0503,-0.0502,-0.0502,-0.0502,-0.0502,-0.0502,0.1121,0.1262,0.134,0.1612,0.1749,0.1979,0.2126,0.2378,0.2556,0.2773,0.2791,0.2744,0.2243,0.0545,-0.0614,-0.0887,-0.1211,-0.1302,-0.1471,-0.114,-0.1108,-0.1078,-0.1096,-0.139,-0.1391,-0.1913,-0.1918,-0.1922]}],[{"header":{"parameterUnit":"m.s-1","parameterCategory":2,"la1":30.2991,"la2":30.254,"lo1":-89.0895,"lo2":-89.0444,"dy":0.0017,"dx":0.0017,"nx":28,"ny":28,"refTime":"2024-05-10T03:00:00:Z","depth":"2","parameterNumber":2,"parameterNumberName":"U-component_of_CURRENTS"},"data":[0,0,0,0,0,0,0,0,0,0,0,0,0,0,0,0,0,0,0,0,0,0,0,0,0,0,0,0,0,0,0,0,0,0,0,0,0,0,0,0,0,0,0,0,0,0,0,0,0,0,0,0,0,0,0,0,0,0,0.3379,0.338,0,0.3444,0.3445,0.3445,0.3452,0.3451,0.3451,0.345,0.3491,0.3493,0.3494,0,0,0,0,0,0,0,0,0,0,0,0,0,0.3293,0.3294,0.3379,0.338,0.3381,0.3444,0.3445,0.3445,0.3452,0.3451,0.3451,0.345,0.3491,0.3493,0.3494,0,0,0,0,0,0,0,0,0,0,0,0,0,0.3339,0.3294,0.3378,0.3394,0.3396,0.3444,0.3445,0.3445,0.3452,0.3451,0.3451,0.345,0.349,0.3493,0.3495,0.3521,0,0,0.3502,0.3503,0,0,0,0,0,0,0,0,0.3336,0.3342,0.339,0.3393,0.3395,0.3441,0.343,0.3471,0.3452,0.3428,0.345,0.345,0.3475,0.3478,0.3488,0.3523,0.3525,0.3502,0.3503,0.3504,0.3505,0,0,0,0,0,0,0,0.3333,0.3339,0.3402,0.3392,0.3395,0.3409,0.3414,0.3437,0.3452,0.343,0.3431,0.3443,0.3475,0.3486,0.3489,0.3526,0.3502,0.3504,0.3505,0.3506,0.3628,0.363,0,0,0,0,0,0,0.3329,0.3336,0.34,0.3404,0.3367,0.3411,0.3417,0.3425,0.3452,0.3456,0.3443,0.3443,0.3483,0.3487,0.3491,0.355,0.3504,0.3506,0.3507,0.3626,0.3629,0.3631,0,0,0,0,0,0,0.3327,0.3334,0.3397,0.3374,0.3383,0.3413,0.3423,0.3427,0.3451,0.3463,0.3466,0.3465,0.3482,0.3488,0.3532,0.3551,0.3507,0.3509,0.3624,0.3627,0.363,0.3652,0,0,0,0,0,0,0.3324,0.3333,0.3349,0.3373,0.3384,0.3435,0.3424,0.3429,0.346,0.346,0.3483,0.3485,0.3482,0.3529,0.3534,0.3553,0.3511,0.3622,0.3625,0.3629,0.3649,0.3655,0.3661,0,0,0,0,0,0.3321,0.3336,0.3349,0.3358,0.3401,0.3437,0.3444,0.3461,0.3462,0.3479,0.3499,0.3485,0.3555,0.3532,0.3538,0.3558,0.362,0.3624,0.3628,0.3646,0.3654,0.366,0,0,0,0,0,0,0.3305,0.3339,0.3354,0.3379,0.3414,0.3439,0.346,0.3474,0.3504,0.3508,0.3512,0.3517,0.3564,0.3566,0.3541,0.3607,0.3585,0.359,0.3596,0.3603,0.3609,0.3611,0.3513,0,0,0,0,0,0.3312,0.3328,0.3369,0.3389,0.3411,0.3441,0.3462,0.3477,0.3504,0.3517,0.3531,0.3555,0.3586,0.3598,0.3625,0.3661,0.3679,0.3679,0.3685,0.369,0.3698,0.3743,0.3753,0.3645,0.3645,0.3645,0,0,0.3313,0.3331,0.3344,0.3387,0.3414,0.3451,0.3451,0.3489,0.3517,0.3518,0.3559,0.3581,0.3604,0.3645,0.3665,0.3647,0.3735,0.3695,0.3699,0.3705,0.3749,0.3759,0.3768,0.3648,0.3647,0.3647,0,0,0.3317,0.3341,0.3364,0.3395,0.3444,0.3466,0.3482,0.3524,0.3542,0.3589,0.36,0.3636,0.3676,0.3694,0.3708,0.3768,0.3771,0.3778,0.38,0.3843,0.3852,0.386,0.3909,0.3921,0.3772,0.3772,0.3772,0,0.3324,0.3348,0.3377,0.341,0.3434,0.3475,0.3507,0.3541,0.359,0.3611,0.3606,0.3685,0.3698,0.3752,0.377,0.3778,0.3809,0.3764,0.3849,0.3857,0.3865,0.3913,0.3926,0.3774,0.3774,0.3773,0.3773,0,0.3342,0.3375,0.3391,0.3441,0.3474,0.3506,0.3557,0.3594,0.3618,0.365,0.3712,0.3739,0.3782,0.3793,0.3798,0.3864,0.3872,0.3855,0.3824,0.3877,0.3925,0.3938,0.3776,0.3775,0.3775,0.3775,0,0,0.3327,0.3392,0.3396,0.3428,0.3489,0.3517,0.357,0.3628,0.3678,0.3715,0.3769,0.3816,0.3837,0.3857,0.3872,0.3905,0.3984,0.3905,0.3907,0.3942,0.4096,0.4065,0.4076,0.3983,0.3985,0.3987,0.411,0,0.3337,0.3381,0.3412,0.3468,0.3505,0.3552,0.3603,0.3662,0.3713,0.3781,0.3813,0.3883,0.3861,0.3899,0.3925,0.399,0.4019,0.3953,0.405,0.4053,0.4009,0.409,0.3769,0.3849,0.4123,0.4125,0.4127,0,0.335,0.3376,0.3414,0.3491,0.3512,0.3554,0.3635,0.3696,0.3797,0.3838,0.3897,0.394,0.4017,0.3982,0.409,0.4055,0.4076,0.4104,0.4108,0.408,0.4046,0.384,0.3862,0.4148,0.4147,0.4145,0.4144,0,0.3311,0.3384,0.3403,0.3426,0.3517,0.3549,0.3611,0.3712,0.3776,0.3896,0.3964,0.4034,0.4117,0.4142,0.4203,0.4161,0.4319,0.4261,0.4246,0.4244,0.399,0.3962,0.4316,0.4316,0.4316,0.4315,0.4315,0,0.3297,0.3324,0.3393,0.3406,0.3468,0.3544,0.3628,0.3708,0.3824,0.3914,0.4005,0.4088,0.4167,0.4257,0.4255,0.4318,0.4362,0.4277,0.4282,0.3992,0.3965,0.423,0.4218,0.432,0.4319,0.4318,0.4317,0,0.3249,0.3286,0.3332,0.3416,0.3453,0.3504,0.3636,0.3695,0.3838,0.3961,0.4009,0.4175,0.431,0.4375,0.4465,0.4418,0.4453,0.4448,0.4116,0.4079,0.433,0.4318,0.4443,0.4443,0.4443,0.4443,0.4443,0,0.3219,0.3239,0.3325,0.3348,0.3386,0.3475,0.3533,0.3679,0.3744,0.3997,0.4041,0.4249,0.4338,0.4491,0.4464,0.4481,0.451,0.4179,0.4024,0.4355,0.4347,0.4335,0.4324,0.3698,0.3692,0.3687,0.3683,0,0.3173,0.3206,0.3229,0.3284,0.3336,0.3403,0.3502,0.3548,0.3731,0.3845,0.4005,0.4114,0.4315,0.421,0.4283,0.4226,0.4149,0.4082,0.4519,0.3727,0.3666,0.3654,0.3664,0.3639,0.3644,0.3647,0.3649,0.3651,0.3126,0.3136,0.3166,0.3203,0.3267,0.3304,0.3301,0.3395,0.3481,0.361,0.3824,0.3893,0.3977,0.3937,0.3816,0.3732,0.4004,0.3789,0.3798,0.3814,0.3717,0.366,0.3615,0.3619,0.3623,0.3626,0.3629,0,0.305,0.3069,0.3088,0.3103,0.3098,0.3193,0.3246,0.3187,0.3202,0.3386,0.3491,0.3304,0.329,0.3358,0.3181,0.3188,0.3082,0.3036,0.2856,0.2908,0.2952,0.2802,0.2461,0.2456,0.2452,0.2448,0,0,0.3006,0.2974,0.2972,0.2916,0.2943,0.2895,0.2892,0.2829,0.2878,0.2864,0.2903,0.3196,0.332,0.2863,0.2803,0.2596,0.2712,0.2493,0.345,0.3294,0.333,0.3432,0.3268,0,0,0,0,0]},{"header":{"parameterUnit":"m.s-1","parameterCategory":2,"la1":30.2991,"la2":30.254,"lo1":-89.0895,"lo2":-89.0444,"dy":0.0017,"dx":0.0017,"nx":28,"ny":28,"refTime":"2024-05-10T03:00:00:Z","depth":"2","parameterNumber":3,"parameterNumberName":"V-component_of_CURRENTS"},"data":[0,0,0,0,0,0,0,0,0,0,0,0,0,0,0,0,0,0,0,0,0,0,0,0,0,0,0,0,0,0,0,0,0,0,0,0,0,0,0,0,0,0,0,0,0,0,0,0,0,0,0,0,0,0,0,0,0,0,0.0226,0.0226,0,0.0182,0.0181,0.0181,0.0129,0.0129,0.0128,0.0128,0.0036,0.0034,0.0032,0,0,0,0,0,0,0,0,0,0,0,0,0,0.0176,0.0178,0.0226,0.0226,0.0225,0.0182,0.0181,0.018,0.0129,0.0129,0.0128,0.0127,0.0036,0.0034,0.0032,0,0,0,0,0,0,0,0,0,0,0,0,0,0.0169,0.0178,0.0226,0.0197,0.0194,0.0182,0.0181,0.018,0.0129,0.0129,0.0128,0.0127,0.0037,0.0034,0.0031,0.0029,0,0,0.0022,0.0021,0,0,0,0,0,0,0,0,0.017,0.0171,0.0201,0.0199,0.0195,0.0163,0.013,0.0128,0.013,0.0151,0.0128,0.0127,0.0076,0.007,0.006,0.0025,0.0021,0.0022,0.002,0.0019,0.0018,0,0,0,0,0,0,0,0.017,0.0172,0.0206,0.0201,0.0198,0.0155,0.0154,0.0129,0.0115,0.0149,0.0146,0.0146,0.0074,0.0063,0.0057,0.0019,0.0022,0.002,0.0018,0.0017,-0.0029,-0.0029,0,0,0,0,0,0,0.0188,0.0173,0.0207,0.0205,0.0184,0.0158,0.0156,0.0172,0.0116,0.0109,0.0146,0.0144,0.0069,0.0061,0.0054,0.0061,0.0019,0.0016,0.0015,-0.003,-0.0029,-0.0029,0,0,0,0,0,0,0.0187,0.0192,0.0209,0.0189,0.0188,0.016,0.0178,0.0171,0.0166,0.0116,0.0106,0.0148,0.0068,0.0058,0.0039,0.0057,0.0015,0.0012,-0.003,-0.003,-0.0029,0.0067,0,0,0,0,0,0,0.0186,0.0192,0.0202,0.0191,0.019,0.0215,0.0179,0.0171,0.0168,0.0164,0.0114,0.0104,0.0066,0.0044,0.0036,0.0052,0.001,-0.0031,-0.003,-0.0029,0.0063,0.0071,0.0077,0,0,0,0,0,0.0185,0.021,0.0204,0.0207,0.0209,0.0217,0.0213,0.0186,0.0169,0.0176,0.0139,0.0106,0.0044,0.0042,0.0033,0.0048,-0.0032,-0.003,-0.0029,0.006,0.0069,0.0077,0,0,0,0,0,0,0.0193,0.0208,0.02,0.0228,0.0227,0.0209,0.0211,0.0197,0.0174,0.0166,0.0116,0.0104,0.0092,0.0058,0.0057,0.0036,0.0,-0.0,0.0071,0.0079,0.0086,0.0109,0.0008,0,0,0,0,0,0.0203,0.0225,0.0228,0.0248,0.0252,0.0234,0.0231,0.0219,0.02,0.0189,0.0156,0.0118,0.009,0.0076,0.0044,0.0038,-0.0004,0.004,0.0047,0.0054,0.0065,0.0013,0.0017,-0.0025,-0.0025,-0.0025,0,0,0.021,0.0221,0.0232,0.0251,0.0245,0.0269,0.023,0.0238,0.025,0.0183,0.0184,0.0143,0.0094,0.0084,0.0076,0.0058,0.0043,0.0055,0.0061,0.0069,0.0015,0.0019,0.0022,-0.0024,-0.0024,-0.0024,0,0,0.0243,0.025,0.028,0.0289,0.0296,0.0292,0.0302,0.0294,0.0281,0.028,0.0232,0.0204,0.0167,0.0134,0.0113,0.0141,0.0083,0.0131,0.0188,0.0138,0.0141,0.0143,0.01,0.0097,0.0136,0.0136,0.0136,0,0.0247,0.0295,0.0287,0.0321,0.0336,0.0313,0.0351,0.034,0.0324,0.032,0.0292,0.0235,0.0191,0.0178,0.0186,0.0159,0.0123,0.0162,0.0149,0.015,0.015,0.0105,0.0101,0.0141,0.014,0.014,0.0139,0,0.0306,0.0342,0.0362,0.0402,0.0415,0.0444,0.044,0.0442,0.0424,0.041,0.0391,0.0326,0.0294,0.0273,0.0239,0.0228,0.0199,0.0165,0.0131,0.0161,0.011,0.0104,0.0147,0.0146,0.0144,0.0143,0,0,0.0331,0.0392,0.04,0.0436,0.0464,0.0486,0.0508,0.0526,0.0549,0.0505,0.0519,0.0456,0.0418,0.0391,0.0337,0.0293,0.0262,0.0242,0.0237,0.0207,0.0159,0.0129,0.0119,0.0227,0.0226,0.0226,0.0124,0,0.0381,0.0464,0.0477,0.0556,0.0604,0.0594,0.0626,0.0631,0.062,0.0627,0.0548,0.0539,0.0465,0.0453,0.0398,0.0304,0.0251,0.0294,0.0127,0.0123,0.0098,0.0112,0.0141,0.0052,0.0117,0.0116,0.0116,0,0.0442,0.0493,0.0578,0.0652,0.0671,0.0709,0.0757,0.0785,0.0778,0.0764,0.0728,0.067,0.0609,0.0534,0.0382,0.0415,0.0299,0.0211,0.0204,0.0141,0.0082,0.003,0.0038,0.0105,0.0106,0.0107,0.0107,0,0.048,0.0567,0.064,0.0664,0.0739,0.0769,0.0808,0.0827,0.087,0.0855,0.0878,0.0777,0.075,0.0589,0.041,0.0396,0.0236,0.0186,0.0043,0.0039,0.0013,0.0008,0.0065,0.0065,0.0065,0.0066,0.0066,0,0.0542,0.0602,0.0666,0.071,0.0811,0.0831,0.0928,0.0945,0.0984,0.1064,0.096,0.0983,0.0764,0.0646,0.0453,0.0244,0.0261,0.0059,0.0012,0.0047,0.0047,0.005,0.005,0.0062,0.0063,0.0063,0.0064,0,0.0585,0.0623,0.0718,0.08,0.0839,0.0912,0.103,0.1097,0.112,0.1217,0.122,0.1143,0.0994,0.0755,0.0504,0.032,0.0102,0.0015,0.0075,0.0038,-0.0075,-0.0069,-0.0155,-0.0157,-0.0159,-0.016,-0.0161,0,0.0617,0.067,0.0788,0.0855,0.0901,0.1012,0.1101,0.1164,0.1245,0.1326,0.1379,0.127,0.1221,0.0836,0.0482,0.0134,0.0089,-0.0075,-0.0109,-0.006,-0.0097,-0.0089,-0.0081,-0.0108,-0.0109,-0.0109,-0.011,0,0.0681,0.0716,0.0795,0.0936,0.1038,0.1173,0.1299,0.1385,0.1481,0.1555,0.1632,0.1599,0.1261,0.0921,0.0446,0.0206,-0.0019,-0.0097,-0.0062,-0.0052,-0.0023,-0.0057,-0.005,-0.0114,-0.0114,-0.0113,-0.0113,-0.0113,0.0725,0.0791,0.0892,0.1028,0.1159,0.1323,0.1439,0.1567,0.1718,0.1857,0.1814,0.1783,0.1407,0.0804,0.0379,-0.0067,-0.0042,-0.0201,-0.0196,-0.0192,-0.0163,-0.0139,-0.0245,-0.0246,-0.0246,-0.0246,-0.0246,0,0.0783,0.0861,0.0981,0.1146,0.1292,0.1362,0.157,0.1677,0.1859,0.1985,0.2043,0.1684,0.1306,0.0861,0.0204,-0.0185,-0.0212,-0.0315,-0.0258,-0.025,-0.0244,-0.0217,-0.0315,-0.0316,-0.0318,-0.0319,0,0,0.0815,0.093,0.0993,0.123,0.1357,0.1569,0.1696,0.1849,0.1971,0.2075,0.2074,0.2023,0.1475,0.0987,0.045,0.007,-0.0,-0.0011,0.0089,0.0228,0.0239,-0.0135,-0.0078,0,0,0,0,0]}],[{"header":{"parameterUnit":"m.s-1","parameterCategory":2,"la1":30.2991,"la2":30.254,"lo1":-89.0895,"lo2":-89.0444,"dy":0.0017,"dx":0.0017,"nx":28,"ny":28,"refTime":"2024-05-10T03:00:00:Z","depth":"4","parameterNumber":2,"parameterNumberName":"U-component_of_CURRENTS"},"data":[0,0,0,0,0,0,0,0,0,0,0,0,0,0,0,0,0,0,0,0,0,0,0,0,0,0,0,0,0,0,0,0,0,0,0,0,0,0,0,0,0,0,0,0,0,0,0,0,0,0,0,0,0,0,0,0,0,0,0.2167,0.2168,0,0.2278,0.2279,0.2279,0.2357,0.2358,0.2359,0.236,0.2451,0.2452,0.2453,0,0,0,0,0,0,0,0,0,0,0,0,0,0.2009,0.2011,0.2167,0.2168,0.217,0.2277,0.2279,0.228,0.2357,0.2358,0.2359,0.236,0.245,0.2452,0.2454,0,0,0,0,0,0,0,0,0,0,0,0,0,0.209,0.2012,0.2166,0.2225,0.2232,0.2277,0.2279,0.228,0.2356,0.2358,0.2359,0.2361,0.2449,0.2452,0.2454,0.2437,0,0,0.2461,0.2461,0,0,0,0,0,0,0,0,0.2085,0.2095,0.2215,0.2221,0.2229,0.2309,0.2257,0.2333,0.2356,0.2304,0.236,0.2361,0.2403,0.2409,0.242,0.2441,0.2445,0.2461,0.2462,0.2463,0.2464,0,0,0,0,0,0,0,0.2079,0.2091,0.2206,0.2216,0.2225,0.2242,0.2254,0.2271,0.234,0.2309,0.2316,0.2335,0.2407,0.2418,0.2423,0.2446,0.2461,0.2463,0.2464,0.2465,0.2633,0.2636,0,0,0,0,0,0,0.2074,0.2085,0.2203,0.221,0.2164,0.2244,0.2258,0.2278,0.234,0.2353,0.2334,0.2338,0.2414,0.2421,0.2427,0.2546,0.2463,0.2465,0.2466,0.263,0.2634,0.2637,0,0,0,0,0,0,0.207,0.2084,0.2198,0.2153,0.217,0.2245,0.2267,0.2279,0.2342,0.236,0.2372,0.2389,0.2415,0.2424,0.2496,0.2545,0.2466,0.2468,0.2626,0.2631,0.2636,0.2698,0,0,0,0,0,0,0.2065,0.2081,0.2109,0.2153,0.2173,0.2255,0.2266,0.2281,0.235,0.2359,0.2411,0.2418,0.2417,0.2493,0.2498,0.2547,0.247,0.2622,0.2629,0.2634,0.2692,0.2704,0.2715,0,0,0,0,0,0.2059,0.2079,0.211,0.2126,0.2204,0.2257,0.2269,0.2323,0.2352,0.2384,0.2432,0.2419,0.2534,0.2497,0.2502,0.2553,0.262,0.2627,0.2634,0.2687,0.2702,0.2714,0,0,0,0,0,0,0.2026,0.209,0.2125,0.2166,0.2226,0.2273,0.2311,0.2349,0.2411,0.2436,0.245,0.246,0.2546,0.2546,0.2504,0.2624,0.2579,0.2587,0.2617,0.2631,0.2643,0.2635,0.2472,0,0,0,0,0,0.2032,0.2067,0.2133,0.2172,0.2206,0.2269,0.2306,0.2351,0.2404,0.2436,0.2475,0.2524,0.257,0.2599,0.2635,0.269,0.269,0.2733,0.2744,0.2754,0.2756,0.28,0.2814,0.2661,0.2661,0.266,0,0,0.2032,0.2073,0.2095,0.2169,0.222,0.2277,0.2296,0.2369,0.2427,0.2433,0.2529,0.2567,0.2597,0.2668,0.2706,0.2679,0.2803,0.2763,0.277,0.2767,0.2809,0.2823,0.2836,0.2665,0.2665,0.2664,0,0,0.2032,0.2089,0.2119,0.2177,0.2268,0.2309,0.2343,0.2425,0.2477,0.2564,0.2593,0.2662,0.273,0.276,0.2781,0.2878,0.2865,0.2905,0.295,0.2994,0.3006,0.3016,0.3046,0.3059,0.2907,0.2907,0.2907,0,0.2037,0.2084,0.2138,0.219,0.2246,0.233,0.2387,0.2448,0.2548,0.2591,0.2611,0.2741,0.2769,0.2847,0.2891,0.29,0.2922,0.2888,0.3005,0.3016,0.3025,0.3053,0.3066,0.2911,0.291,0.291,0.2909,0,0.2057,0.2118,0.2145,0.2239,0.2303,0.2369,0.2463,0.254,0.2615,0.2672,0.2786,0.2835,0.2907,0.2938,0.2945,0.3039,0.3032,0.3013,0.2959,0.3044,0.3069,0.3081,0.2916,0.2915,0.2914,0.2913,0,0,0.2012,0.2133,0.215,0.2207,0.2341,0.2391,0.2497,0.2601,0.2679,0.2778,0.2866,0.296,0.2999,0.3028,0.3056,0.3099,0.3192,0.3096,0.3097,0.3107,0.3294,0.3101,0.3095,0.3199,0.3201,0.3203,0.3286,0,0.2022,0.2102,0.2173,0.228,0.2336,0.2451,0.2541,0.2652,0.2749,0.2855,0.2926,0.303,0.303,0.309,0.3132,0.3191,0.3228,0.3171,0.3227,0.3229,0.303,0.3104,0.3211,0.3295,0.3298,0.33,0.3301,0,0.2019,0.2078,0.2166,0.2306,0.2346,0.2433,0.2593,0.269,0.2843,0.2921,0.3024,0.3091,0.3199,0.318,0.3295,0.3266,0.3288,0.3311,0.3315,0.3115,0.3057,0.3194,0.3323,0.3321,0.332,0.3318,0.3317,0,0.1943,0.2075,0.2142,0.2195,0.2364,0.2443,0.2551,0.2713,0.2803,0.2982,0.3065,0.3181,0.3277,0.332,0.3384,0.336,0.3488,0.3448,0.3287,0.3274,0.3393,0.338,0.3508,0.3508,0.3508,0.3508,0.3507,0,0.191,0.1976,0.2122,0.217,0.2276,0.2419,0.2554,0.2678,0.285,0.2949,0.3104,0.3183,0.3325,0.3408,0.3421,0.3394,0.3518,0.3301,0.3282,0.342,0.341,0.3401,0.3388,0.3511,0.351,0.351,0.3509,0,0.1824,0.1917,0.2008,0.2183,0.2247,0.2332,0.2547,0.263,0.2827,0.2961,0.3029,0.323,0.3347,0.3444,0.3541,0.3436,0.3432,0.3387,0.3548,0.3536,0.3178,0.3168,0.3199,0.3193,0.3188,0.3183,0.318,0,0.1782,0.1817,0.1991,0.2046,0.214,0.2284,0.2375,0.2592,0.2679,0.2949,0.2989,0.3192,0.3296,0.3283,0.3394,0.3407,0.3365,0.3328,0.3223,0.3168,0.3148,0.3145,0.3142,0.3171,0.317,0.3169,0.3167,0,0.1702,0.1775,0.1847,0.1954,0.2058,0.2156,0.2312,0.2349,0.2589,0.2785,0.2886,0.2954,0.3085,0.3158,0.321,0.3201,0.3328,0.3272,0.3281,0.3183,0.3135,0.3119,0.3122,0.3149,0.3152,0.3154,0.3155,0,0.1643,0.1659,0.1755,0.184,0.195,0.1998,0.2096,0.2206,0.2321,0.2614,0.2634,0.2853,0.3051,0.3052,0.3085,0.3084,0.3024,0.2894,0.2921,0.2943,0.2819,0.2718,0.2591,0,0,0,0,0,0.157,0.1573,0.1634,0.1708,0.1806,0.1877,0.2037,0.2138,0.2352,0.2357,0.2494,0.2601,0.2685,0.2797,0.2745,0.2959,0.3026,0.2881,0.2887,0.3049,0.307,0.2947,0,0,0,0,0,0,0.1518,0.1563,0.158,0.1579,0.1605,0.1697,0.1786,0.1931,0.1955,0.2185,0.2257,0.2433,0.2568,0.2699,0.2696,0.2726,0.267,0.302,0.3013,0.3038,0.3056,0.3073,0.2954,0,0,0,0,0]},{"header":{"parameterUnit":"m.s-1","parameterCategory":2,"la1":30.2991,"la2":30.254,"lo1":-89.0895,"lo2":-89.0444,"dy":0.0017,"dx":0.0017,"nx":28,"ny":28,"refTime":"2024-05-10T03:00:00:Z","depth":"4","parameterNumber":3,"parameterNumberName":"V-component_of_CURRENTS"},"data":[0,0,0,0,0,0,0,0,0,0,0,0,0,0,0,0,0,0,0,0,0,0,0,0,0,0,0,0,0,0,0,0,0,0,0,0,0,0,0,0,0,0,0,0,0,0,0,0,0,0,0,0,0,0,0,0,0,0,0.0178,0.0178,0,0.0151,0.0151,0.015,0.0114,0.0114,0.0113,0.0113,0.0048,0.0046,0.0045,0,0,0,0,0,0,0,0,0,0,0,0,0,0.0137,0.0138,0.0178,0.0178,0.0178,0.0151,0.0151,0.015,0.0114,0.0114,0.0113,0.0113,0.0048,0.0047,0.0045,0,0,0,0,0,0,0,0,0,0,0,0,0,0.0136,0.0139,0.0178,0.0158,0.0156,0.0151,0.0151,0.015,0.0114,0.0114,0.0113,0.0112,0.0049,0.0047,0.0045,0.0046,0,0,0.0039,0.0038,0,0,0,0,0,0,0,0,0.0136,0.0137,0.0161,0.0159,0.0157,0.0137,0.0112,0.0114,0.0114,0.0128,0.0113,0.0112,0.0076,0.0071,0.0066,0.0043,0.004,0.0039,0.0037,0.0037,0.0036,0,0,0,0,0,0,0,0.0136,0.0138,0.0166,0.0161,0.0159,0.0129,0.0129,0.0112,0.0104,0.0127,0.0125,0.0125,0.0074,0.0068,0.0064,0.0039,0.0039,0.0037,0.0036,0.0035,0.0004,0.0004,0,0,0,0,0,0,0.0147,0.0138,0.0166,0.0165,0.0147,0.0131,0.013,0.0143,0.0105,0.0099,0.0125,0.0123,0.0072,0.0066,0.0062,0.0069,0.0037,0.0035,0.0034,0.0003,0.0004,0.0004,0,0,0,0,0,0,0.0147,0.015,0.0168,0.0151,0.0152,0.0133,0.0147,0.0142,0.014,0.0104,0.0097,0.0128,0.0071,0.0064,0.0053,0.0066,0.0034,0.0032,0.0003,0.0004,0.0004,0.0078,0,0,0,0,0,0,0.0146,0.0151,0.016,0.0153,0.0153,0.0174,0.0147,0.0142,0.0142,0.0139,0.0105,0.0098,0.007,0.0056,0.0051,0.0063,0.003,0.0003,0.0003,0.0004,0.0076,0.0082,0.0087,0,0,0,0,0,0.0145,0.0166,0.0161,0.0164,0.0168,0.0175,0.0173,0.0155,0.0143,0.0149,0.0124,0.0099,0.0056,0.0055,0.0049,0.006,0.0002,0.0003,0.0004,0.0073,0.008,0.0086,0,0,0,0,0,0,0.0153,0.0164,0.0158,0.0182,0.0182,0.017,0.0173,0.0164,0.0149,0.0144,0.0108,0.0099,0.0093,0.0066,0.0066,0.0051,0.0024,0.0023,0.0078,0.0085,0.009,0.0107,0.0029,0,0,0,0,0,0.0161,0.0179,0.0181,0.0198,0.0201,0.0189,0.0188,0.018,0.0168,0.0161,0.0138,0.0111,0.0092,0.0081,0.0059,0.0056,0.0017,0.0056,0.0062,0.0067,0.0075,0.0024,0.0026,0.0007,0.0007,0.0007,0,0,0.0167,0.0176,0.0185,0.0201,0.0197,0.0215,0.0186,0.0194,0.0205,0.0156,0.016,0.0132,0.0095,0.0089,0.0084,0.0069,0.0052,0.0068,0.0073,0.0078,0.0025,0.0027,0.0029,0.0007,0.0007,0.0007,0,0,0.019,0.02,0.0221,0.0229,0.0235,0.0234,0.0242,0.0238,0.0229,0.0232,0.0197,0.0177,0.0154,0.0127,0.0111,0.0133,0.0084,0.0127,0.0169,0.0119,0.0121,0.0121,0.0076,0.0072,0.0129,0.0129,0.0129,0,0.0194,0.0228,0.0226,0.025,0.0263,0.025,0.0277,0.0272,0.0263,0.026,0.0243,0.0202,0.0171,0.0158,0.0167,0.0146,0.0112,0.0149,0.0127,0.0127,0.0126,0.008,0.0074,0.0132,0.0132,0.0132,0.0131,0,0.0233,0.0261,0.0276,0.0307,0.0319,0.0341,0.0342,0.0347,0.0338,0.033,0.0316,0.0269,0.0245,0.0231,0.0209,0.0193,0.0168,0.0142,0.0113,0.0133,0.0082,0.0075,0.0138,0.0136,0.0135,0.0134,0,0,0.0244,0.0294,0.03,0.0326,0.0353,0.0371,0.0392,0.0407,0.0423,0.0397,0.0404,0.0364,0.0336,0.0316,0.0276,0.0235,0.0201,0.0197,0.0193,0.0159,0.0095,0.0074,0.0063,0.0171,0.017,0.017,0.0063,0,0.0274,0.0332,0.035,0.0408,0.044,0.0444,0.0472,0.048,0.0475,0.0478,0.0423,0.0416,0.0369,0.0361,0.0313,0.0233,0.0186,0.0232,0.0077,0.0072,0.0055,0.0056,0.0167,0.0057,0.0055,0.0054,0.0053,0,0.0309,0.0347,0.0408,0.0468,0.0483,0.0516,0.0557,0.0581,0.0578,0.057,0.0545,0.0505,0.0454,0.0406,0.0272,0.0306,0.0212,0.0139,0.0133,0.0083,0.0038,0.0031,0.004,0.0041,0.0042,0.0043,0.0044,0,0.0323,0.039,0.0443,0.0464,0.0526,0.0554,0.0588,0.0609,0.0638,0.0631,0.064,0.0568,0.0538,0.0414,0.0272,0.0272,0.0114,0.0087,-0.0027,-0.003,-0.0011,-0.0011,-0.0019,-0.0018,-0.0018,-0.0018,-0.0018,0,0.0354,0.0399,0.0457,0.0489,0.0561,0.0589,0.066,0.0678,0.0709,0.0755,0.0693,0.0691,0.0539,0.0435,0.0292,0.0116,0.0121,-0.0018,-0.0059,0.0022,0.0028,-0.0017,-0.0015,-0.0022,-0.0021,-0.002,-0.002,0,0.0367,0.0403,0.0472,0.0543,0.0575,0.0627,0.0722,0.0769,0.0789,0.0843,0.0846,0.0782,0.0651,0.0479,0.0276,0.0148,-0.0025,-0.0095,0.0013,-0.0021,-0.0142,-0.0135,-0.0228,-0.0229,-0.0231,-0.0232,-0.0233,0,0.0379,0.0416,0.0511,0.0561,0.06,0.0684,0.0751,0.0807,0.0862,0.0897,0.0921,0.0824,0.0754,0.0462,0.0266,-0.0017,-0.0064,-0.0161,-0.0156,-0.0133,-0.0163,-0.0154,-0.0146,-0.0235,-0.0235,-0.0236,-0.0236,0,0.0402,0.0436,0.0494,0.0599,0.0677,0.0772,0.0867,0.091,0.0981,0.0993,0.0989,0.0851,0.0699,0.0473,0.0252,0.0045,-0.0099,-0.0176,-0.0175,-0.0172,-0.0143,-0.017,-0.016,-0.0241,-0.024,-0.024,-0.0239,0,0.042,0.0461,0.0541,0.0637,0.0739,0.0841,0.0885,0.0956,0.1014,0.105,0.1042,0.0888,0.0805,0.0503,0.0298,0.0096,0.0037,-0.0039,-0.0046,-0.0043,0.0037,0.0102,0.0046,0,0,0,0,0,0.0436,0.049,0.0575,0.0686,0.0788,0.0857,0.0962,0.0998,0.1057,0.1067,0.1064,0.0927,0.0646,0.0524,0.0319,0.024,-0.0021,-0.0012,-0.0117,-0.0268,-0.0262,-0.0203,0,0,0,0,0,0,0.0449,0.0527,0.0576,0.0717,0.0797,0.0921,0.0992,0.1029,0.1035,0.1058,0.0916,0.0861,0.0586,0.0772,0.0315,0.0252,0.0151,-0.0137,-0.0143,-0.0271,-0.0266,-0.0261,-0.0198,0,0,0,0,0]}]]